Погода в Семлячики

Погода в Семлячики : погода сейчас, прогноз погоды и архив. Всё, что Вы хотите узнать о погоде в Семлячики!

Хотите узнать прогноз погоды в Семлячики? Тогда Вам сюда: Погода в Семлячики

Поиск расширенной информации на нашем сайте:

Другие новости

Новости СМИ2

Главная страница сайта

Новости сайта

02.10.2013

Напоминаем, что на нашем новом сайте вы можете получить высокодетализированные прогнозы погоды по пунктам России, СНГ и мира (включающие важные для авиации метеовеличины, такие как направление и скорость ветра, видимость, явления погоды, количество и форма облачности, нижняя и верхняя граница облачности), а также ознакомиться с разнообразными материалами по авиационной метеорологии и подборкой полезных ссылок на эту тему.

Сайт Метеоцентр.Азия посвящён разработке технологий оптимизации авиаметеорологического обслуживания, включая проектирование и перспективное создание нескольких автоматизированных авиаметеорологических систем:
- система выпуска высокодетальных прогностических карт явлений погоды для нижнего воздушного пространства по России и ближнему зарубежью;
- система верификации прогнозов TAF (выпускаемых синоптиками официальных АМСГ РФ и ближнего зарубежья) и AUTOTAF (выпускаемых сайтом Метеоцентр.Азия) - выявление ошибок, онлайн-сопоставление с фактической погодой METAR, автоматическое внесение коррективов в прогнозы при резком отклонении фактической погоды от прогноза, подсчёт оправдываемости прогнозов по элементам и в целом;
- система обработки, анализа и отображения авиаметеорологической информации для применения провайдерами метеорологической информации.


Погода в Семлячики - сегодня

Время (UTC), дата Ветер
(°,м/с) 
Видим.   Явления Облачность Т
(°С)
Тd
(°С)
f(%) Тe
(°С)
Pmin
(гПа)
dP
(гПа)
Po
(мм)
O2
(г/м3)
Тmin Tmax R s Состояние
почвы
12 24.02.17 020 (С) 13-16{19}  2000 м  ливневой снег  10/10 300 м кучево-дожд. 
[Cb cap]
-4.9 -5.8 93 -12  987.6  -3.3  738  303           
15 24.02.17 360 (С) 9-14{17}  2000 м  ливневой снег  10/10 300 м кучево-дожд. 
[Cb cap]
-5.2 -11 64 -11  982.9  -4.7  735  303           
18 24.02.17 320 (СЗ) 13-21{21}  0500 м  метель{ливн. осадки}  ?/?  
-7.9 -11.1 78 -16  980.9  -2  733  305           
21 24.02.17 280 (З) 14-22{24}  20000 м  позёмок  10/10 1000 м 
[Sc]
-6.9 -14.8 53 -15  981.7  0.8  734  305  -8    0.8  21  неравномерный
мокрый или
старый снег
100% 
00 25.02.17 290 (З) 14-22{24}  20000 м  позёмок  10/8 1000 м средняя 
[Sc|Ac trans]
-6.1 -15.7 47 -14  984.3  2.5  736  304           
03 25.02.17 310 (СЗ) 12-20{24}  20000 м  позёмок  10/5 1000 м средняя, верхняя 
[Sc|Ac trans|Ci fib]
-4 -14.1 45 -10  986.6  2.3  737  303           
06 25.02.17 280 (З) 7-13{22}  20000 м  позёмок  5/0 средняя, верхняя 
[Ac trans|Ci fib]
-4.2 -15.9 40 -9  991.5  4.9  741  305           
09 25.02.17 340 (С) 12-22{22}  20000 м  пыльная буря  ясно 
-7.2 -18.5 40 -14  996  4.5  744  310    -3.5       
12 25.02.17 320 (СЗ) 6-11{22}  20000 м    ясно 
-8.8 -20.6 38 -14  1002.4  6.3  749  313           
15 25.02.17 310 (СЗ) 5{16}  20000 м    ясно 
-9.3 -21.2 37 -14  1006.2  3.8  752  315           
18 25.02.17 310 (СЗ) 20000 м    ясно 
-10 -19.4 46 -14  1009.9  3.7  755  317           
21 25.02.17 360 (С) 20000 м    ясно 
-10.3 -21.1 41 -13  1013.2  3.3  757  319  -10.8         
00 26.02.17 180 (Ю) 20000 м    ясно 
-4.4 -19.7 29 -7  1015.8  2.7  759  312           
03 26.02.17 360 (С) 3{11}  20000 м    ясно 
-3.8 -16.3 37 -6  1017.6  1.8  761  312           
06 26.02.17 260 (З) 20000 м    ясно 
-4.1 -17.8 34 -6  1019.5  1.9  762  313           
09 26.02.17 260 (З) 20000 м    ясно 
-7.7 -14.9 56 -7  1021.9  2.4  764  318    -3.4       
12 26.02.17 260 (З) 20000 м    ясно 
-6.5 -14.3 54 -6  1024  765  317           
15 26.02.17 070 (В) 20000 м    10/10 600 м 
[Sc]
-6.4 -9.5 79 -9  1024.6  0.7  766  317           
18 26.02.17 020 (С) 12-14{15}  4000 м  слаб. ливневой снег  10/10 300 м кучево-дожд. 
[Cb cap]
-5.3 -6.5 91 -12  1024.3  -0.4  766  315           
21 26.02.17 110 (В) 7{15}  20000 м  позёмок{ливн. осадки}  10/10 600 м 
[Sc]
-1.2 -3.9 82 -5  1024.9  0.7  766  311  -8.6    0.7  20  неравномерный
мокрый или
старый снег
100% 
00 27.02.17 160 (Ю) 7-10{14}  20000 м  позёмок{ливн. осадки}  10/10 600 м 
[Sc]
-0.7 -4 78 -5  1025.5  0.7  767  310           
03 27.02.17 120 (ЮВ) 8{12}  20000 м  пыльная буря  10/10 600 м 
[Sc]
-0.4 -3.5 80 -5  1023.6  -1.8  765  309           
06 27.02.17 090 (В) 9-10{12}  20000 м  позёмок  10/10 600 м 
[Sc]
-0.7 -2.6 87 -5  1021.6  -2  764  309           
09 27.02.17 090 (В) 10-12{13}  20000 м  позёмок  10/10 600 м 
[Sc]
-0.8 -1.4 96 -6  1019.9  -1.8  762  308    -0.4       
12 27.02.17 090 (В) 8-11{14}  4000 м  слаб. ливневой снег  10/10 300 м кучево-дожд. 
[Cb cap]
-0.9 -1.1 99 -5  1018.4  -1.5  761  308           
Время (UTC), дата Ветер
(°,м/с) 
Видим.   Явления Облачность Т
(°С)
Тd
(°С)
f(%) Тe
(°С)
Pmin
(гПа)
dP
(гПа)
Po
(мм)
O2
(г/м3)
Тmin Tmax R s Состояние
почвы

Для получения пояснительной информации подведите курсор к названию столбца.

ПОГОДА в Семлячики - архив

Всё, что Вы хотите узнать о погоде в Семлячики - удобно и подробно!

Выберите нужную дату (начиная с 1 января 2015* года) и нажмите кнопку "Найти".
Будут отображены архивные сводки погоды по пункту Семлячики, начиная с указанной даты.


Отображать данные в формате CSV (для использования в таблицах Excel)


Внимание! Наш архив погоды предназначен исключительно для личного некоммерческого использования в познавательных целях. Если Вам необходимы официальные справки о состоянии погоды (для производственных, юридических, коммерческих и т.п. целей), обращайтесь в органы Росгидромета.

*Примечание: данная дата относится к архиву по метеостанциям СССР (Россия, СНГ, Балтия).
Архив по метеостанциям Зарубежной Европы и Азии (кроме Китая) хранится 10 дней, по другим регионам земного шара (Китай, Африка, Америка, Австралия, Океания) - 1 день.

Семлячики - район местоположения метеостанции


Название, широта, долгота, высота метеостанции:
Семлячики 54.1°ш. 160°д. 27 м над ур. моря [Российская Федерация]

Дополнительная информация

В oтличие oт бoльшинства пoгoдных сайтoв мы публикуем пoдрoбную метеoинфoрмацию в детальнoм прoфессиoнальнoм фoрмате.

Характеристики температуры и влажнoсти вoздуха измеряются на высoте 2 м в тени вдали oт зданий и деревьев.
Скoрoсть ветра измеряется на высoте 10 м (на урoвне рoста челoвека скoрoсть ветра ниже в 1.5-2 раза). Если метеoстанция нахoдится в гoрoде или в лесу, тo скoрoсть ветра занижена на 2-4 м/с пo сравнению с oткрытым местoм. Скoрoсть ветра над акватoриями крупных рек и oзёр, а также на вершинах хoлмoв на 2-5 м/с выше, чем в oбычных услoвиях.
Атмoсфернoе давление в разных тoчках местнoсти мoжет значительнo oтличаться oт давления на метеoстанции, в зависимoсти oт услoвий рельефа (при пoдъёме на 10 м давление пoнижается примернo на 1 мм рт.ст.).